Temperature
17 17 17 17 17 17 17 17 17 17 17 18 17 17 17 17 17 17 17 17 16 16 16 16 16 16 16 16 16 15 15 15 15 15 15 15 15 15
17 17 17 17 17 17 17 17 17 17 17 17 17 17 17 17 17 17 17 16 16 16 16 16 16 16 16 16 15 15 15 15 15 15 15 15 15 15
17 16 17 17 17 17 17 17 17 17 17 17 17 17 17 16 16 16 16 16 16 16 16 16 16 16 16 15 15 15 15 15 15 15 15 15 15 15
16 16 16 16 16 16 16 16 16 16 16 16 16 16 16 16 16 16 16 16 16 16 15 15 15 15 15 15 15 15 15 15 15 15 15 15 15 14
16 16 16 16 16 16 16 16 16 16 16 16 16 16 16 16 15 15 15 15 15 15 15 15 15 15 15 15 15 15 15 15 14 14 14 14 14 14
16 16 16 16 16 16 16 16 16 16 15 15 15 15 15 15 15 15 15 15 15 15 15 15 15 15 15 15 14 14 14 14 14 14 14 14 14 14
15 15 15 15 15 15 15 15 15 15 15 15 15 15 15 15 15 15 14 14 14 14 14 14 14 14 14 14 14 14 14 14 14 14 14 14 14 14
15 15 15 15 15 15 15 15 14 14 15 14 14 14 14 14 14 14 14 14 14 14 14 14 14 14 14 14 14 14 14 14 13 13 13 13 13 13
15 15 15 15 15 14 14 14 14 14 14 14 14 14 14 14 14 14 14 14 14 14 14 13 13 13 13 13 13 13 13 13 13 13 13 13 13 13
15 15 15 15 14 14 14 14 14 14 14 14 14 14 14 14 14 14 13 13 13 13 13 13 13 13 13 13 13 13 13 13 13 13 13 13 13 13
14 14 14 14 14 14 14 14 14 14 14 14 13 13 13 13 13 13 13 13 13 13 13 13 12 12 13 12 12 12 12 12 12 12 12 12 12 12
14 14 14 14 14 14 14 13 13 13 13 13 13 13 13 13 13 13 13 12 12 12 12 12 12 12 12 12 12 12 12 12 12 12 12 12 11 11
14 14 14 14 14 13 13 13 13 13 13 13 13 13 13 13 12 12 12 12 12 12 12 12 12 12 11 11 11 12 12 12 12 11 11 11 11 11
14 13 13 13 13 13 13 13 13 13 12 12 12 12 12 12 12 12 12 12 12 12 12 12 11 11 11 11 11 11 11 11 11 11 11 11 11 11
13 13 13 13 13 13 13 12 12 12 12 12 12 12 12 12 12 12 12 12 12 11 11 11 11 11 11 11 11 11 11 11 11 11 11 11 11 11
13 13 13 13 13 13 12 12 12 12 12 12 12 11 11 11 11 11 11 11 11 11 11 11 11 11 11 11 11 11 11 11 11 11 11 11 10 10
13 13 13 13 12 12 12 12 12 12 11 11 11 11 11 11 11 11 10 11 11 11 11 11 11 11 11 11 11 11 11 11 10 11 10 10 10 10
13 13 12 12 12 12 12 12 12 11 11 11 11 11 10 10 10 10 10 10 10 10 10 10 10 10 10 10 10 10 10 10 10 10 10 10 10 10
13 13 12 12 12 12 12 12 11 11 11 11 10 10 10 10 10 10 10 10 10 10 10 10 10 10 10 10 10 10 10 10 10 10 10 10 10 10
13 12 12 12 12 12 12 12 11 11 11 10 10 10 10 10 10 10 9 9 9 10 10 10 10 10 10 10 10 10 10 10 10 10 10 9 9 9
13 12 12 12 12 12 11 11 11 11 11 10 10 10 9 9 9 9 9 9 9 9 9 9 9 9 9 9 9 10 10 10 9 9 9 9 9 9
12 12 12 12 12 11 11 11 11 10 10 10 10 9 9 9 9 9 9 9 9 9 9 9 9 9 9 9 9 9 9 9 9 9 9 9 9 9
12 12 12 12 11 11 11 11 10 10 10 10 9 9 9 9 9 9 9 9 9 9 9 9 9 9 9 9 9 9 9 9 9 9 9 9 9 9
Wind_Speed
2 3 3 3 3 3 2 2 2 3 3 2 1 1 1 3 5 5 6 6 7 7 7 7 7 7 7 7 7 8 8 8 8 8 9 10 10 11
2 2 3 3 3 3 3 2 2 2 3 3 2 1 1 0 3 3 5 6 7 8 8 7 7 7 6 6 7 7 8 8 8 8 9 10 10 10
2 2 3 3 4 4 3 3 2 2 3 3 2 2 1 0 1 2 4 5 6 7 8 7 7 6 5 5 5 5 6 7 8 8 8 9 10 10
2 3 3 3 3 4 4 4 3 2 2 4 3 2 2 1 2 2 2 3 5 6 6 6 6 6 5 4 4 5 5 6 7 8 8 8 8 9
2 2 2 3 3 3 4 3 3 3 2 3 4 2 2 2 2 2 2 1 3 5 6 7 7 6 5 4 4 4 4 5 5 6 7 7 7 8
2 2 2 2 3 4 4 3 3 3 3 3 3 2 1 2 2 2 2 2 2 2 3 5 7 7 5 5 4 4 3 4 4 5 5 6 6 7
2 2 2 2 3 3 3 3 3 3 3 3 3 2 2 1 2 2 2 2 2 1 1 2 3 3 4 5 4 4 3 3 3 4 5 5 6 6
3 3 2 2 1 1 3 4 4 4 3 3 3 3 3 2 2 3 2 2 2 1 0 2 1 2 3 4 5 5 5 4 4 4 4 4 4 5
3 4 4 4 2 2 3 4 4 4 4 3 3 3 3 2 2 3 3 2 3 2 1 2 1 1 2 4 7 7 6 5 4 4 4 4 4 5
2 3 2 3 4 3 3 2 3 3 4 3 2 3 3 2 3 3 4 2 2 1 1 1 1 1 1 3 7 8 7 6 5 5 5 5 4 5
3 2 2 1 2 3 2 2 3 3 3 2 2 3 3 4 3 2 2 2 2 1 1 0 1 1 1 2 5 7 7 7 7 7 6 5 5 4
2 2 1 1 2 2 2 2 3 3 3 3 3 4 4 4 4 3 3 2 2 1 0 0 1 0 1 1 2 5 6 7 8 8 8 7 6 5
2 1 0 0 1 2 3 2 4 4 3 3 3 2 2 1 1 1 2 3 2 2 1 0 1 1 1 1 1 3 4 4 5 6 9 9 9 7
3 2 1 3 4 4 3 4 4 3 3 3 2 1 1 1 1 1 1 2 2 2 2 1 1 1 1 2 2 2 2 3 4 4 5 7 8 9
3 3 3 4 4 4 5 5 3 2 3 2 1 1 1 0 0 1 2 1 1 2 3 3 2 2 2 2 2 2 2 2 3 3 4 4 4 4
3 3 3 5 4 3 2 2 3 2 2 2 2 1 1 1 1 1 1 1 1 1 2 3 2 2 2 3 2 2 2 2 2 3 3 3 4 6
3 3 3 2 2 2 2 2 2 2 2 2 1 1 1 1 1 0 1 2 2 2 1 2 2 2 3 3 3 3 2 1 2 2 2 3 4 5
2 3 3 3 3 3 3 2 2 2 1 1 1 1 1 1 1 1 1 2 2 2 1 1 1 2 2 2 2 2 2 1 1 2 2 3 4 3
4 4 4 3 3 3 3 2 1 1 1 1 1 1 1 1 1 1 1 2 2 2 2 2 1 2 2 3 2 2 2 2 2 3 3 3 4 4
4 4 4 3 3 3 2 2 1 1 1 1 1 1 1 2 2 2 2 3 3 3 2 2 1 1 2 3 3 3 5 4 3 3 3 2 2 2
4 3 3 2 2 2 1 1 1 1 1 1 1 1 1 2 2 2 3 3 3 3 3 2 3 4 3 2 3 3 3 5 5 3 3 3 3 2
3 3 2 2 2 2 1 1 1 1 1 2 2 2 2 2 2 3 3 3 3 3 3 3 3 3 3 3 4 4 3 3 3 4 4 5 3 4
3 2 2 2 1 2 1 1 1 2 2 2 2 2 2 2 2 3 3 3 3 3 3 3 3 2 3 3 4 4 4 3 3 3 3 6 7 7
Wind_Direction
314 313 307 303 299 289 290 276 274 293 292 277 279 261 167 143 164 162 160 180 190 198 203 206 208 212 220 227 228 221 219 220 218 218 218 218 217 217
289 317 318 317 317 306 293 288 276 264 273 279 291 280 250 198 160 157 172 187 197 201 205 207 210 211 218 224 229 222 218 217 217 219 218 216 216 217
312 322 320 317 315 313 316 307 293 291 282 286 280 285 279 295 210 202 185 185 189 194 199 204 204 203 206 212 217 217 216 219 220 219 217 216 214 212
325 326 318 317 323 318 318 311 306 301 284 283 281 288 265 232 230 231 202 202 185 195 192 191 191 192 193 201 208 213 214 216 217 217 217 217 215 212
320 316 316 326 317 316 306 303 299 298 291 281 284 285 293 275 263 260 233 220 214 186 191 193 194 196 200 203 210 214 211 209 206 207 211 215 215 213
332 324 320 314 315 313 308 313 311 309 293 287 281 277 282 273 266 274 269 250 255 211 201 190 194 199 202 200 208 214 210 206 203 204 204 206 211 212
316 314 311 323 332 319 323 322 318 315 311 303 294 297 306 297 289 286 287 279 266 235 196 205 182 194 196 199 197 193 188 188 195 198 199 196 195 196
308 303 284 291 310 324 324 319 310 296 301 300 299 306 316 315 301 291 285 279 279 297 279 259 195 190 171 172 184 179 180 183 184 182 183 184 185 187
299 303 303 306 350 342 314 296 304 299 271 268 291 299 296 299 294 286 284 264 264 256 254 260 209 196 183 181 179 178 181 188 196 197 192 188 188 189
290 294 299 333 336 339 318 314 306 304 278 261 263 278 293 294 281 270 269 272 263 254 193 244 273 279 235 168 182 182 189 197 201 205 207 204 204 209
264 277 292 343 349 0 336 315 308 305 323 324 290 281 282 279 283 289 287 264 266 270 7 277 262 293 239 190 186 190 197 201 209 215 215 217 217 215
260 264 281 22 23 360 319 303 304 311 318 310 298 275 257 256 251 238 249 260 263 263 311 330 262 272 275 234 185 197 209 215 216 220 221 225 219 217
274 269 250 135 275 283 274 271 280 290 292 288 281 267 263 259 250 237 244 239 248 268 243 273 271 279 249 264 257 211 208 212 214 222 225 222 214 209
294 302 222 202 235 255 255 268 285 298 282 284 301 324 346 6 354 348 290 248 236 220 220 239 256 243 250 280 279 251 235 217 205 207 209 211 212 216
295 307 276 238 246 241 239 256 277 285 287 295 306 344 16 330 306 349 328 286 224 238 218 215 242 256 241 247 268 262 257 239 209 201 200 197 200 206
273 285 257 238 251 258 238 238 235 250 265 282 304 338 7 328 282 307 295 281 255 245 228 224 234 241 257 264 249 259 250 231 222 210 198 196 207 211
266 258 249 234 232 233 228 226 232 231 250 272 277 307 325 309 293 295 296 297 272 260 251 234 231 254 248 249 259 261 250 252 228 199 196 218 215 214
228 250 244 240 246 248 244 233 223 219 235 253 239 232 258 273 283 275 260 264 278 283 277 259 254 273 280 282 255 255 265 271 274 240 228 228 234 222
221 242 244 243 245 249 248 247 232 205 202 232 231 244 266 275 282 277 272 274 277 281 278 260 239 255 276 287 280 253 254 261 259 252 243 238 237 223
234 243 248 246 245 244 245 242 223 191 185 224 235 259 269 274 278 275 274 279 274 266 266 260 238 249 265 277 279 270 241 237 240 249 263 275 282 269
251 256 260 261 261 252 246 241 215 188 191 218 229 245 263 270 274 274 272 272 270 269 269 260 245 244 252 262 268 265 252 235 240 236 238 252 264 256
250 252 256 258 258 262 251 240 237 223 213 230 236 237 248 262 268 269 276 279 273 274 279 279 260 237 240 254 264 269 268 250 244 256 257 247 239 238
243 260 264 259 251 260 262 255 245 246 248 256 254 252 250 253 265 265 268 275 281 284 287 283 279 257 254 256 266 271 275 269 250 244 260 265 258 254
Height
1518 1518 1518 1517 1517 1517 1517 1517 1517 1515 1515 1515 1516 1515 1515 1514 1514 1513 1512 1512 1512 1511 1511 1510 1510 1509 1509 1509 1509 1510 1510 1511 1512 1514 1515 1516 1518 1520
1517 1516 1516 1516 1515 1515 1515 1515 1515 1514 1513 1513 1513 1513 1513 1512 1511 1511 1510 1509 1509 1508 1508 1508 1507 1507 1506 1506 1506 1506 1507 1508 1509 1510 1512 1513 1514 1516
1515 1514 1514 1514 1513 1513 1513 1512 1512 1512 1511 1511 1511 1511 1510 1509 1508 1508 1507 1506 1506 1506 1505 1505 1504 1504 1503 1503 1503 1503 1504 1505 1506 1507 1508 1509 1511 1512
1513 1512 1512 1512 1511 1510 1510 1510 1509 1509 1509 1508 1507 1507 1507 1506 1506 1505 1504 1504 1503 1503 1503 1502 1502 1501 1501 1500 1500 1500 1501 1501 1502 1503 1504 1505 1506 1508
1511 1510 1510 1509 1509 1508 1508 1507 1507 1506 1506 1505 1504 1504 1503 1503 1503 1502 1502 1502 1501 1501 1500 1500 1499 1499 1498 1498 1498 1498 1498 1498 1498 1499 1500 1501 1502 1504
1508 1508 1507 1507 1506 1506 1505 1505 1504 1503 1503 1503 1502 1501 1500 1500 1500 1499 1499 1499 1499 1498 1497 1497 1497 1496 1496 1495 1495 1495 1495 1495 1496 1496 1497 1498 1499 1500
1506 1506 1505 1505 1504 1503 1503 1502 1501 1500 1500 1499 1499 1498 1497 1497 1497 1496 1496 1495 1495 1495 1494 1494 1494 1493 1493 1493 1493 1492 1492 1493 1493 1493 1494 1495 1496 1497
1504 1503 1503 1502 1501 1500 1500 1499 1499 1498 1497 1497 1496 1495 1495 1494 1494 1493 1493 1492 1491 1492 1491 1491 1491 1491 1490 1490 1490 1490 1490 1490 1491 1491 1491 1492 1493 1494
1501 1500 1500 1500 1498 1497 1497 1496 1496 1495 1495 1494 1493 1493 1492 1491 1491 1490 1490 1489 1489 1489 1489 1488 1489 1488 1488 1488 1488 1488 1488 1488 1488 1488 1489 1489 1490 1491
1498 1498 1497 1496 1496 1495 1494 1493 1492 1492 1491 1491 1490 1490 1489 1489 1488 1487 1487 1487 1487 1487 1487 1486 1486 1486 1486 1486 1486 1485 1485 1486 1486 1486 1486 1487 1487 1488
1496 1496 1495 1494 1493 1492 1491 1490 1489 1489 1488 1488 1487 1487 1486 1486 1485 1484 1484 1484 1483 1483 1484 1484 1483 1484 1484 1483 1483 1483 1483 1483 1484 1484 1484 1484 1485 1486
1494 1493 1492 1491 1491 1490 1489 1488 1487 1486 1485 1484 1484 1483 1482 1482 1482 1482 1481 1481 1481 1481 1481 1481 1481 1481 1481 1481 1481 1481 1481 1481 1481 1481 1482 1482 1483 1483
1491 1490 1490 1489 1488 1487 1486 1485 1484 1483 1482 1481 1480 1480 1479 1479 1479 1479 1478 1479 1478 1478 1479 1479 1479 1479 1479 1479 1479 1479 1479 1479 1479 1478 1479 1479 1480 1480
1489 1489 1488 1487 1486 1485 1484 1483 1482 1481 1480 1479 1478 1477 1476 1476 1475 1475 1475 1476 1476 1476 1476 1477 1476 1476 1476 1476 1476 1476 1476 1476 1476 1476 1476 1476 1477 1477
1486 1486 1486 1485 1483 1482 1481 1481 1480 1479 1478 1477 1475 1474 1474 1473 1473 1473 1473 1473 1473 1473 1474 1474 1474 1474 1474 1474 1473 1473 1473 1473 1473 1473 1473 1473 1474 1474
1483 1483 1482 1482 1481 1480 1479 1478 1477 1476 1475 1474 1474 1473 1472 1472 1471 1471 1471 1471 1471 1471 1472 1472 1472 1472 1472 1471 1471 1470 1470 1470 1470 1470 1470 1470 1471 1471
1479 1479 1479 1479 1478 1477 1476 1475 1475 1474 1473 1472 1472 1471 1470 1470 1470 1470 1470 1470 1470 1469 1469 1469 1469 1469 1469 1469 1468 1468 1468 1467 1467 1467 1467 1467 1467 1468
1476 1476 1476 1475 1475 1474 1474 1473 1472 1471 1470 1470 1469 1469 1469 1469 1468 1468 1468 1468 1468 1468 1467 1467 1467 1467 1467 1466 1466 1465 1465 1465 1465 1464 1464 1464 1463 1464
1473 1473 1473 1473 1472 1472 1472 1471 1470 1469 1468 1468 1467 1467 1467 1467 1466 1466 1466 1466 1466 1465 1465 1465 1464 1464 1463 1463 1463 1464 1463 1462 1462 1462 1461 1461 1460 1461
1470 1470 1470 1470 1470 1470 1469 1468 1468 1467 1466 1466 1465 1465 1465 1465 1464 1464 1464 1463 1463 1463 1463 1462 1462 1461 1461 1461 1460 1460 1461 1460 1459 1458 1458 1457 1457 1457
1467 1467 1467 1467 1467 1467 1466 1466 1465 1465 1464 1464 1464 1463 1463 1462 1462 1462 1461 1461 1461 1460 1460 1459 1459 1459 1459 1458 1458 1456 1457 1457 1456 1455 1454 1453 1453 1452
1464 1464 1464 1464 1464 1464 1463 1463 1462 1462 1461 1461 1461 1461 1460 1460 1460 1459 1459 1458 1458 1457 1457 1456 1456 1455 1455 1454 1453 1453 1453 1453 1452 1452 1451 1451 1449 1447
1460 1461 1461 1460 1460 1460 1460 1460 1459 1459 1459 1458 1458 1458 1458 1457 1457 1457 1456 1456 1455 1454 1453 1453 1452 1452 1451 1451 1450 1449 1449 1448 1447 1446 1446 1446 1446 1445